Flag for U.S.A. Weather past 2 weeks in Juneau, Alaska, U.S.A.

Now
50 °F

Light rain. Mostly cloudy.


Feels Like: 46 °F
Forecast: 50 / 56 °F
Wind: 10 mph from East

Location: Juneau International Airport

Current Time: Aug 29, 2014 at 6:54:28 AM

Latest Report: Aug 29, 2014 at 5:53 AM


Visibility: 10 mi

Pressure: 29.65 "Hg

Humidity: 96%

Dew point: 49 °F

Location of JuneauLocation

Historic Weather in Juneau — Graph

°F

Juneau temperature yesterday

Maximum temperature yesterday: 58 °F (at 2:53 PM)
Minimum temperature yesterday: 50 °F (at 3:53 AM)
Average temperature yesterday: 54 °F

Past Weeks' High & Low Weather Summary

 TemperatureHumidityPressure
High71 °F (Aug 21, 3:53 PM)100% (Aug 14, 6:53 AM)30.21 "Hg (Aug 14, 6:53 AM)
Low44 °F (Aug 20, 5:53 AM)47% (Aug 21, 2:53 PM)29.66 "Hg (Aug 29, 4:53 AM)
Average56 °F88%30.01 "Hg
* Reported Aug 14 4:53 AM — Aug 29 4:53 AM, Juneau, Weather by CustomWeather, © 2014

Note: Actual official high and low records may vary slightly from our data, if they occured in-between our weather recording intervals... More about our weather records

Advertising

Juneau weather history for previous 24 hours

 ConditionsComfort  
Time TempWeatherWind HumidityBarometerVisibility
4:53 AM
Aug 29
50 °FLight rain. Mostly cloudy.3 mph96%29.66 "Hg10 mi
3:53 AM51 °FLight rain. Mostly cloudy.8 mph92%29.68 "Hg10 mi
2:53 AM52 °FLight rain. Mostly cloudy.13 mph89%29.70 "Hg10 mi
1:53 AM52 °FLight rain. Overcast.14 mph93%29.72 "Hg10 mi
12:53 AM52 °FLight rain. Mostly cloudy.9 mph93%29.74 "Hg10 mi
11:53 PM
Aug 28
53 °FLight rain. Mostly cloudy.10 mph89%29.76 "Hg10 mi
10:53 PM52 °FLight rain. Mostly cloudy.13 mph93%29.78 "Hg10 mi
9:53 PM54 °FLight rain. Mostly cloudy.15 mph83%29.79 "Hg10 mi
8:53 PM54 °FMostly cloudy.10 mph86%29.81 "Hg10 mi
7:53 PM54 °FMostly cloudy.8 mph86%29.82 "Hg10 mi
6:53 PM55 °FMostly cloudy.9 mph83%29.84 "Hg10 mi
5:53 PM57 °FCloudy.12 mph78%29.86 "Hg10 mi
4:53 PM57 °FCloudy.14 mph74%29.88 "Hg10 mi
3:53 PM58 °FMore clouds than sun.13 mph75%29.89 "Hg10 mi
2:53 PM58 °FMostly cloudy.13 mph75%29.91 "Hg10 mi
1:53 PM57 °FMostly cloudy.10 mph81%29.93 "Hg10 mi
12:53 PM55 °FMostly cloudy.12 mph87%29.95 "Hg10 mi
11:53 AM57 °FMostly cloudy.10 mph83%29.96 "Hg10 mi
10:53 AM57 °FCloudy.8 mph83%29.97 "Hg10 mi
9:53 AM55 °FCloudy.14 mph90%29.98 "Hg10 mi
8:53 AM54 °FCloudy.10 mph93%29.99 "Hg10 mi
7:53 AM52 °FBroken clouds.12 mph93%29.99 "Hg10 mi
6:53 AM51 °FBroken clouds.8 mph96%30.00 "Hg10 mi
Weather by CustomWeather, © 2014

See weather overviewHow to use our weather pages